Ellensburg, WA
on Sunday, January 6, 2013

Sunday
Previous Day Next Day
Daily Summary
 ActualAverage (KYKM)Record (KYKM)
Temperature
Mean Temperature °F / °C 29°F / -2°C  
Max Temperature 28°F / -2°C 36°F / 2°C 59°F / 15°C (2009)
Min Temperature 24°F / -4°C 22°F / -6°C -13°F / -25°C (1982)
Degree Days
Heating Degree Days 39 36  
Month to date heating degree days 219  
Since 1 July heating degree days 2882  
Cooling Degree Days 0 0  
Month to date cooling degree days 0  
Year to date cooling degree days 0  
Moisture
Dew Point 22°F / -6°C   
Average Humidity 80    
Maximum Humidity 85    
Minimum Humidity 74    
Precipitation
Precipitation 0.00 in / 0.00 cm 0.04 in / 1.02 cm 0.96 in / 2.44 cm (1948)
Month to date precipitation 0.26  
Year to date precipitation 0.26  
Snow
Snow 0.00 in / 0.00 cm 0.20 in / 0.51 cm 3.70 in / 9.40 cm (1950)
Month to date snowfall 1.4  
Year to date snowfall 1.4  
Since 1 July snowfall 14.4  
Snow Depth in / cm   
Wind
Wind Speed 0 mph / 0 km/h   
Max Wind Speed 5 mph / 8 km/h   
Max Gust Speed mph / km/h   
Visibility 2 miles / 3 kilometers   
Events Fog   

Key: T is trace of precipitation, MM is missing value
Source: NWS Daily Summary
Time(PST)TemperatureDew PointHumidity Pressure Visibility Wind DirectionWind SpeedGust SpeedPrecipitationEvents Conditions
12:20 AM 28.4°F / -2.0°C 23.0°F / -5.0°C 80% 30.16 in / 1021.2 hPa 2.5 miles / 4.0 kilometers Calm Calm - N/A   Haze
12:53 AM 28.0°F / -2.2°C 23.0°F / -5.0°C 81% 30.21 in / 1022.9 hPa 2.0 miles / 3.2 kilometers Calm Calm - N/A   Haze
1:15 AM 28.4°F / -2.0°C 23.0°F / -5.0°C 80% 30.14 in / 1020.5 hPa 2.0 miles / 3.2 kilometers Calm Calm - N/A   Haze
1:53 AM 28.0°F / -2.2°C 21.9°F / -5.6°C 78% 30.21 in / 1022.8 hPa 2.5 miles / 4.0 kilometers Calm Calm - N/A   Haze
2:02 AM 28.4°F / -2.0°C 23.0°F / -5.0°C 80% 30.15 in / 1020.9 hPa 3.0 miles / 4.8 kilometers Calm Calm - N/A   Haze
2:53 AM 28.0°F / -2.2°C 23.0°F / -5.0°C 81% 30.20 in / 1022.7 hPa 3.0 miles / 4.8 kilometers Calm Calm - N/A   Haze
3:53 AM 28.0°F / -2.2°C 23.0°F / -5.0°C 81% 30.20 in / 1022.6 hPa 3.0 miles / 4.8 kilometers Calm Calm - N/A   Haze
4:10 AM 28.4°F / -2.0°C 23.0°F / -5.0°C 80% 30.13 in / 1020.2 hPa 2.5 miles / 4.0 kilometers Calm Calm - N/A   Haze
4:53 AM 27.0°F / -2.8°C 23.0°F / -5.0°C 85% 30.19 in / 1022.1 hPa 2.5 miles / 4.0 kilometers Calm Calm - N/A   Overcast
5:06 AM 28.4°F / -2.0°C 23.0°F / -5.0°C 80% 30.12 in / 1019.9 hPa 2.5 miles / 4.0 kilometers Calm Calm - N/A   Haze
5:27 AM 28.4°F / -2.0°C 23.0°F / -5.0°C 80% 30.12 in / 1019.9 hPa 3.0 miles / 4.8 kilometers Calm Calm - N/A   Haze
5:50 AM 28.4°F / -2.0°C 23.0°F / -5.0°C 80% 30.12 in / 1019.9 hPa 2.5 miles / 4.0 kilometers Calm Calm - N/A   Haze
5:53 AM 28.0°F / -2.2°C 23.0°F / -5.0°C 81% 30.18 in / 1022.0 hPa 2.5 miles / 4.0 kilometers Calm Calm - N/A   Haze
6:06 AM 26.6°F / -3.0°C 21.2°F / -6.0°C 80% 30.12 in / 1019.9 hPa 5.0 miles / 8.0 kilometers Calm Calm - N/A   Haze
6:53 AM 25.0°F / -3.9°C 19.9°F / -6.7°C 81% 30.20 in / 1022.5 hPa 5.0 miles / 8.0 kilometers Calm Calm - N/A   Haze
7:53 AM 26.1°F / -3.3°C 19.9°F / -6.7°C 78% 30.20 in / 1022.5 hPa 5.0 miles / 8.0 kilometers Calm Calm - N/A   Haze
8:19 AM 24.8°F / -4.0°C 19.4°F / -7.0°C 80% 30.14 in / 1020.5 hPa 2.5 miles / 4.0 kilometers Calm Calm - N/A   Haze
8:53 AM 26.1°F / -3.3°C 19.9°F / -6.7°C 78% 30.22 in / 1023.3 hPa 2.0 miles / 3.2 kilometers Calm Calm - N/A   Haze
9:02 AM 26.6°F / -3.0°C 21.2°F / -6.0°C 80% 30.17 in / 1021.6 hPa 1.5 miles / 2.4 kilometers Calm Calm - N/A   Haze
9:25 AM 26.6°F / -3.0°C 21.2°F / -6.0°C 80% 30.17 in / 1021.6 hPa 1.0 miles / 1.6 kilometers SW 3.5 mph / 5.6 km/h - N/A   Overcast
9:36 AM 26.6°F / -3.0°C 21.2°F / -6.0°C 80% 30.17 in / 1021.6 hPa 0.5 miles / 0.8 kilometers Calm Calm - N/A Fog Light Freezing Fog
10:53 AM 27.0°F / -2.8°C 21.9°F / -5.6°C 81% 30.23 in / 1023.6 hPa 0.8 miles / 1.2 kilometers Calm Calm - N/A   Haze
11:53 AM 28.0°F / -2.2°C 23.0°F / -5.0°C 81% 30.20 in / 1022.6 hPa 0.8 miles / 1.2 kilometers Calm Calm - N/A   Haze
12:04 PM 26.6°F / -3.0°C 21.2°F / -6.0°C 80% 30.13 in / 1020.2 hPa 1.2 miles / 2.0 kilometers South 4.6 mph / 7.4 km/h - N/A   Haze
12:43 PM 28.4°F / -2.0°C 21.2°F / -6.0°C 74% 30.11 in / 1019.5 hPa 1.0 miles / 1.6 kilometers Calm Calm - N/A   Haze
12:50 PM 28.4°F / -2.0°C 21.2°F / -6.0°C 74% 30.11 in / 1019.5 hPa 0.5 miles / 0.8 kilometers Calm Calm - N/A   Haze
12:53 PM 28.0°F / -2.2°C 21.9°F / -5.6°C 78% 30.17 in / 1021.5 hPa 0.5 miles / 0.8 kilometers West 3.5 mph / 5.6 km/h - N/A   Haze
1:53 PM 28.0°F / -2.2°C 23.0°F / -5.0°C 81% 30.16 in / 1021.1 hPa 0.8 miles / 1.2 kilometers Calm Calm - N/A   Haze
2:06 PM 28.4°F / -2.0°C 23.0°F / -5.0°C 80% 30.09 in / 1018.8 hPa 1.0 miles / 1.6 kilometers Calm Calm - N/A   Haze
2:15 PM 28.4°F / -2.0°C 23.0°F / -5.0°C 80% 30.09 in / 1018.8 hPa 1.5 miles / 2.4 kilometers Calm Calm - N/A   Haze
2:22 PM 28.4°F / -2.0°C 23.0°F / -5.0°C 80% 30.09 in / 1018.8 hPa 3.0 miles / 4.8 kilometers Calm Calm - N/A   Haze
2:32 PM 28.4°F / -2.0°C 23.0°F / -5.0°C 80% 30.09 in / 1018.8 hPa 2.5 miles / 4.0 kilometers Calm Calm - N/A   Haze
2:53 PM 28.0°F / -2.2°C 23.0°F / -5.0°C 81% 30.16 in / 1021.1 hPa 3.0 miles / 4.8 kilometers North - - N/A   Haze
3:43 PM 28.4°F / -2.0°C 23.0°F / -5.0°C 80% 30.08 in / 1018.5 hPa 2.5 miles / 4.0 kilometers North - - N/A   Haze
3:53 PM 28.0°F / -2.2°C 23.0°F / -5.0°C 81% 30.14 in / 1020.5 hPa 2.5 miles / 4.0 kilometers Calm Calm - N/A   Haze
4:39 PM 28.4°F / -2.0°C 23.0°F / -5.0°C 80% 30.08 in / 1018.5 hPa 1.8 miles / 2.8 kilometers Calm Calm - N/A   Haze
4:48 PM 28.4°F / -2.0°C 23.0°F / -5.0°C 80% 30.07 in / 1018.2 hPa 2.5 miles / 4.0 kilometers Calm Calm - N/A   Haze
4:53 PM 27.0°F / -2.8°C 23.0°F / -5.0°C 85% 30.13 in / 1020.3 hPa 2.5 miles / 4.0 kilometers Calm Calm - N/A   Overcast
5:29 PM 28.4°F / -2.0°C 23.0°F / -5.0°C 80% 30.07 in / 1018.2 hPa 3.0 miles / 4.8 kilometers Calm Calm - N/A   Haze
5:53 PM 28.0°F / -2.2°C 21.9°F / -5.6°C 78% 30.13 in / 1020.2 hPa 3.0 miles / 4.8 kilometers Calm Calm - N/A   Haze
6:08 PM 28.4°F / -2.0°C 21.2°F / -6.0°C 74% 30.07 in / 1018.2 hPa 1.8 miles / 2.8 kilometers Calm Calm - N/A   Haze
6:44 PM 26.6°F / -3.0°C 21.2°F / -6.0°C 80% 30.06 in / 1017.8 hPa 0.8 miles / 1.2 kilometers Calm Calm - N/A   Haze
6:53 PM 27.0°F / -2.8°C 23.0°F / -5.0°C 85% 30.13 in / 1020.2 hPa 0.5 miles / 0.8 kilometers Calm Calm - N/A Fog Light Freezing Fog
7:53 PM 27.0°F / -2.8°C 21.9°F / -5.6°C 81% 30.12 in / 1019.9 hPa 0.5 miles / 0.8 kilometers Calm Calm - N/A   Haze
8:53 PM 27.0°F / -2.8°C 21.9°F / -5.6°C 81% 30.12 in / 1020.0 hPa 0.2 miles / 0.4 kilometers Calm Calm - N/A   Haze
9:53 PM 27.0°F / -2.8°C 21.9°F / -5.6°C 81% 30.11 in / 1019.6 hPa 0.2 miles / 0.4 kilometers West 3.5 mph / 5.6 km/h - N/A   Haze
10:53 PM 26.1°F / -3.3°C 21.9°F / -5.6°C 84% 30.10 in / 1019.2 hPa 0.5 miles / 0.8 kilometers Calm Calm - N/A Fog Light Freezing Fog
11:33 PM 26.6°F / -3.0°C 21.2°F / -6.0°C 80% 30.02 in / 1016.5 hPa 1.2 miles / 2.0 kilometers Calm Calm - N/A   Haze
11:53 PM 27.0°F / -2.8°C 21.9°F / -5.6°C 81% 30.07 in / 1018.3 hPa 1.0 miles / 1.6 kilometers ENE 3.5 mph / 5.6 km/h - N/A   Haze
Moon Phase
Jan. 06 Jan. 11 Jan. 18 Jan. 26 Feb. 03
Sunrise:07:47 AM (PST) Moon Rise:01:59 AM (PST)1/6
Sunset:04:29 PM (PST) Moon Set:12:06 PM (PST)1/6

Copyright © 2014 The Weather Underground, Inc.